TIME,DELAY(SENSOR),PRES,T(CTD),SAL,OXYGEN,RAWTEMP,T(OPTODE),TCPHASE,FLUOR,BETA(BETA700),BETA(BETA412),BETA(BETA440),CDOM,C(CSC),ED(ED412.40),ED(ED444.00),ED(ED489.70),ED(ED554.30),LU(LU411.80),LU(LU443.40),LU(LU489.60),LU(LU554.10),COMP,TILTX,TILTX(TILTY),CHECK
1359322988,5808,497.0599975585937500,6.5423002243041990,34.1128005981445300,79.9393615722656200,601.7470703125000000,6.5278148651123050,48.9418601989746100,51,102,87,79,78,15032,2147746688,2147422994,2148006107,2147875218,2147631140,2147075136,2148248923,2147195629,2881,4,13,33831
1359323111,5807,485.5899963378906000,6.7989001274108890,34.1026000976562500,88.9909973144531200,593.7119140625000000,6.7872090339660645,47.7874107360839840,52,103,88,81,78,15030,2147750482,2147426102,2148006253,2147874176,2147629202,2147078070,2148244141,2147195510,2488,4,13,39079
1359323232,5812,473.9400024414062500,7.0023999214172360,34.0970001220703100,99.9880371093750000,587.6187133789062000,6.9835071563720700,46.5039405822753900,51,102,86,80,78,15033,2147751222,2147420763,2148005787,2147876288,2147630966,2147078235,2148240484,2147198637,3220,4,13,21223
1359323342,5809,463.1900024414062500,7.2193999290466310,34.0946006774902340,105.2424011230468800,580.3395996093750000,7.2175579071044920,45.8419799804687500,50,104,89,79,77,15032,2147747830,2147423890,2148003958,2147872374,2147630875,2147083117,2148240868,2147193837,2515,4,13,31856
1359323454,5810,452.2200012207031000,7.4579000473022460,34.1057014465332000,109.5281982421875000,573.5579833984375000,7.4351830482482910,45.2965507507324200,51,104,88,79,77,15028,2147745609,2147421202,2148007506,2147874614,2147627748,2147080274,2148239771,2147198646,2074,4,13,44233
1359323564,5808,441.3800048828125000,7.5872001647949220,34.0938987731933600,115.6962966918945300,568.9553833007812000,7.5826530456542970,44.6116905212402340,51,103,90,81,78,15028,2147744594,2147422994,2148003958,2147874459,2147625554,2147082386,2148238939,2147198198,2634,4,13,64395
1359323685,5805,429.7999877929687500,7.8640999794006350,34.1044006347656250,120.3218994140625000,560.5598144531250000,7.8511748313903810,44.0291481018066400,50,104,86,80,76,15025,2147746386,2147422665,2148006637,2147874770,2147622912,2147088576,2148241481,2147194505,1748,4,13,9155
1359323797,5807,419.3399963378906000,8.0424003601074220,34.1086006164550800,122.9256973266601600,554.9514770507812000,8.0302133560180660,43.6885490417480500,51,105,87,79,75,15025,2147741915,2147423597,2148005092,2147874688,2147624768,2147087817,2148232713,2147197778,1554,4,13,8931
1359323918,5805,408.6099853515625000,8.2700996398925780,34.0923995971679700,133.9709014892578000,547.9998779296875000,8.2517700195312500,42.5638008117675800,51,106,89,80,75,15027,2147739821,2147425837,2147998610,2147875958,2147620982,2147088850,2148235693,2147199625,1739,4,13,41444
1359324053,5806,397.2999877929687500,8.4818000793457030,34.0880012512207000,145.6540069580078000,540.5850830078125000,8.4876537322998050,41.4338798522949200,50,105,88,79,76,15026,2147741257,2147420781,2148003547,2147873645,2147620086,2147091437,2148232621,2147205787,2664,4,13,52998
1359324185,5806,387.0700073242187500,8.6651000976562500,34.0904998779296900,150.6470947265625000,535.5172729492188000,8.6486234664917000,40.9375495910644500,50,105,87,81,75,15027,2147739766,2147422848,2148002029,2147874642,2147619538,2147093842,2148229037,2147204114,1592,4,13,59118
1359324339,5808,375.4400024414062500,8.9348001480102540,34.0917015075683600,159.4494018554687500,526.8792724609375000,8.9225215911865230,40.0911483764648440,50,104,88,80,74,15026,2147738889,2147423040,2148007076,2147877632,2147615360,2147088987,2148227218,2147201398,562,3,13,8809
1359324474,5806,363.5100097656250000,9.2874002456665040,34.0983009338378900,167.7342071533203000,515.8560791015625000,9.2712268829345700,39.2764701843261700,50,103,90,80,73,15028,2147737307,2147424877,2148002806,2147874733,2147617993,2147093577,2148233746,2147204617,3054,3,13,59151
1359324573,5809,353.4599914550781000,9.6017999649047850,34.1081008911132800,176.5106048583984400,505.7878112792969000,9.5889415740966800,38.4714393615722660,50,107,88,81,72,15025,2147736219,2147424274,2148003364,2147876352,2147617554,2147096484,2148227876,2147200960,165,4,13,47042
1359324683,5811,342.3699951171875000,10.0265998840332030,34.1138992309570300,183.7890930175781200,492.6112976074219000,10.0036602020263670,37.7458992004394500,49,104,89,80,72,15026,2147738267,2147422134,2148003035,2147873490,2147614144,2147096027,2148222528,2147206061,666,3,13,47348
1359324806,5808,330.6799926757812500,10.2461004257202150,34.1239013671875000,190.3240051269531200,484.7500000000000000,10.2505102157592770,37.1795883178710940,50,105,89,80,71,15026,2147739081,2147425243,2148003574,2147875730,2147612836,2147100827,2148226002,2147200365,2845,3,14,41799
1359324916,5808,320.1099853515625000,10.5565004348754880,34.1318016052246100,193.8345031738281200,474.0082092285156000,10.5871801376342770,36.7739295959472660,49,104,88,80,71,15026,2147735268,2147425234,2148006217,2147876736,2147611126,2147101229,2148222144,2147202322,3202,4,13,3214
1359325037,5808,308.7600097656250000,11.0083999633789060,34.1482009887695300,200.2234039306640600,460.7615051269531000,11.0013504028320310,36.1547012329101560,49,104,88,80,70,15025,2147732443,2147425865,2148012745,2147873316,2147605668,2147106486,2148220205,2147200000,2177,3,13,37265
1359325149,5807,298.6099853515625000,11.2714996337890620,34.1595993041992200,203.3388977050781200,451.4183959960937500,11.2928400039672850,35.8128700256347660,48,106,88,80,70,15024,2147732224,2147425984,2148013769,2147873645,2147608036,2147110180,2148222080,2147202395,1643,3,14,34447
1359325281,5810,286.9899902343750000,11.4875001907348630,34.1511001586914060,205.8930969238281200,443.0473937988281000,11.5535697937011720,35.5240402221679700,48,103,91,82,69,15027,2147728923,2147427510,2148013558,2147872923,2147604480,2147120832,2148220187,2147204854,1536,3,15,27328
1359325405,5808,276.8900146484375000,12.0631999969482420,34.1568984985351560,207.1970977783203000,426.4208068847656000,12.0703296661376950,35.1801910400390600,49,102,85,79,69,15025,2147729792,2147433965,2148017353,2147875712,2147602678,2147115492,2148215232,2147200923,2402,3,13,55820
1359325548,5811,265.6900024414062500,12.5300998687744140,34.1613006591796900,208.4604034423828000,411.7919006347656000,12.5238304138183600,34.8746681213378900,48,103,87,81,70,15028,2147727113,2147432411,2148012260,2147873856,2147600685,2147116032,2148219968,2147206208,3550,3,14,45031
1359325735,5810,252.2200012207031200,13.5518999099731450,34.2312011718750000,210.0724029541015600,379.5736999511719000,13.5191898345947270,34.2812004089355500,48,102,84,78,68,15025,2147723200,2147432466,2148013558,2147870939,2147596022,2147127844,2148210304,2147203401,1194,4,14,63181
1359325869,5808,241.7700042724609400,14.6597995758056640,34.3521003723144500,211.7037963867187500,342.8734130859375000,14.6481800079345700,33.6334190368652340,48,102,86,80,70,15023,2147720649,2147435392,2148016786,2147876379,2147589467,2147138898,2148210313,2147208045,1554,3,14,55183
1359326045,5807,227.7200012207031200,15.8716001510620120,34.4926986694335940,210.2342987060547000,303.2669982910156000,15.8621997833251950,33.1330108642578100,49,102,88,80,66,15020,2147720749,2147442285,2148028544,2147873810,2147586157,2147140644,2148206756,2147208731,1267,3,14,13799
1359326158,5810,216.6199951171875000,16.7350997924804700,34.6031990051269500,209.5211944580078000,274.4312133789062500,16.7441196441650400,32.7573585510253900,49,101,88,80,65,15018,2147721060,2147452763,2148049974,2147876434,2147579035,2147158646,2148209892,2147210075,1283,3,14,5146
1359326268,5808,205.9400024414062500,17.6366004943847660,34.7248001098632800,211.5444030761718800,244.3957977294922000,17.6617107391357420,32.2191696166992200,49,103,88,80,64,15014,2147720265,2147459538,2148061577,2147875584,2147570953,2147171702,2148207597,2147214299,1247,2,14,6413
1359326376,5808,197.6699981689453000,18.9503993988037100,34.9071998596191400,212.7987060546875000,202.8215942382812500,18.9313907623291000,31.5748004913330080,50,103,90,80,64,15013,2147712201,2147454738,2148048274,2147872813,2147570971,2147177371,2148200073,2147212982,1175,3,14,8401
1359326431,5807,194.1300048828125000,19.1716003417968750,34.9485015869140600,214.6018981933593800,195.5348968505859400,19.1539897918701170,31.3783206939697270,51,102,85,79,65,15010,2147714816,2147452726,2148036809,2147875885,2147570102,2147184027,2148193353,2147215058,1273,3,14,7321
1359326497,5809,189.5800018310547000,19.4176998138427730,34.9934997558593750,215.1336975097656200,186.3276062011718800,19.4353408813476560,31.2253093719482420,51,103,88,80,65,15006,2147711872,2147464118,2148055341,2147872502,2147568000,2147191680,2148199442,2147211154,367,3,15,22007
1359326552,5809,185.4499969482422000,19.6368999481201170,35.0327987670898440,217.3312072753906200,179.8415069580078000,19.6335906982421880,31.0212497711181640,52,103,91,79,63,15007,2147719222,2147483154,2148091593,2147873005,2147569691,2147205732,2148216667,2147214180,16,3,14,9443
1359326607,5806,180.9499969482422000,19.7208995819091800,35.0516014099121100,219.4402008056640600,177.1045989990234400,19.7172603607177730,30.8746604919433600,50,101,88,80,62,15007,2147723264,2147494482,2148108800,2147875730,2147570816,2147217033,2148223917,2147218331,173,3,14,59499
1359326686,5806,174.6499938964843800,20.0193996429443360,35.0894012451171900,220.0832061767578000,167.0639038085937500,20.0243091583251950,30.7070999145507800,52,103,88,81,64,14999,2147721691,2147488658,2148095853,2147872484,2147567606,2147216155,2148212699,2147215277,3068,2,15,60139
1359326741,5809,170.4199981689453000,20.0408992767334000,35.0931015014648440,220.7086944580078000,166.6705017089843800,20.0363407135009770,30.6698703765869140,52,106,90,80,63,15003,2147722998,2147501933,2148116699,2147874459,2147569243,2147224612,2148225929,2147220662,3371,2,15,26259
1359326796,5807,165.7400054931640600,20.0258007049560550,35.0894012451171900,220.9620971679687500,167.2505035400390600,20.0186004638671880,30.6644802093505860,52,103,87,82,63,15001,2147733430,2147522029,2148142966,2147874093,2147572050,2147238610,2148239040,2147219254,3073,2,15,54014
1359326851,5805,161.3899993896484400,20.3320999145507800,35.1253013610839840,219.8728942871093800,157.5043945312500000,20.3167896270751950,30.5906791687011720,54,105,87,81,63,14997,2147742290,2147539108,2148166052,2147878409,2147577398,2147250624,2148248064,2147222272,2736,2,16,34393
1359326906,5806,157.9799957275390600,20.3689994812011720,35.1324996948242200,220.5957946777343800,155.9978027343750000,20.3628997802734380,30.5334892272949220,56,106,91,81,63,14998,2147749613,2147552512,2148184576,2147874953,2147578998,2147259520,2148262710,2147223396,2211,2,15,57452
1359326996,5804,153.1799926757812500,20.5372009277343750,35.1589012145996100,220.8820037841797000,150.8916931152343800,20.5192108154296880,30.4512500762939450,57,107,88,81,63,14993,2147771017,2147595392,2148243885,2147875245,2147591186,2147288292,2148289801,2147223542,2535,2,16,47866
1359327084,5808,150.1799926757812500,20.6448993682861330,35.1767997741699200,221.4591979980468800,146.9898986816406200,20.6386909484863280,30.3703994750976560,59,107,90,81,61,14995,2147784201,2147625088,2148287104,2147874112,2147593005,2147310491,2148306368,2147224896,2749,2,15,54447
1359327227,5810,146.1100006103515600,20.8621997833251950,35.2056999206543000,222.3739929199218800,141.8054046630859400,20.7974891662597660,30.2555503845214840,61,105,90,80,64,14992,2147826422,2147711122,2148410203,2147875099,2147614573,2147371611,2148376548,2147232036,1412,2,16,10404
1359327346,5810,141.5099945068359400,21.0116004943847660,35.2238006591796900,222.5742034912109400,135.3105010986328000,20.9965190887451170,30.1602706909179700,64,110,87,81,63,14983,2147933769,2147918336,2148706944,2147877750,2147663890,2147498761,2148523968,2147241554,2083,2,16,47012
1359327423,5809,137.7100067138672000,21.2670993804931640,35.2498016357421900,222.8036041259765600,127.6521987915039000,21.2313404083251950,30.0484008789062500,74,112,87,81,61,14977,2148072923,2148163053,2149075273,2147879972,2147729216,2147655625,2148712749,2147255990,1970,3,16,28155
1359327522,5809,133.6300048828125000,21.4379997253417970,35.2686996459960940,223.6000976562500000,121.5584030151367200,21.4182891845703120,29.9292507171630860,82,112,93,81,62,14964,2148224713,2148432027,2149460233,2147883968,2147800932,2147822482,2148902857,2147274020,2404,2,15,44079
1359327624,5803,130.0700073242187500,21.5645008087158200,35.2817993164062500,224.2248992919922000,117.2666015625000000,21.5500297546386720,29.8422698974609380,86,113,91,81,61,14960,2148306971,2148541065,2149607058,2147887140,2147834066,2147880073,2148970825,2147278756,1584,2,16,26574
1359327778,5807,126.4800033569336000,21.7728004455566400,35.2891006469726560,226.2996063232422000,110.4375991821289000,21.7597408294677730,29.6513690948486330,96,118,88,81,62,14954,2148409856,2148660781,2149749467,2147892068,2147872877,2147929024,2149012562,2147284608,1055,2,16,35113
1359327934,5809,121.7900009155273400,21.9759998321533200,35.2882003784179700,227.6188964843750000,103.5445022583007800,21.9715690612792970,29.4979991912841800,105,119,90,82,62,14938,2148640429,2148954697,2150101824,2147895460,2147963986,2148059364,2149149586,2147295113,348,2,16,54794
1359328022,5809,117.6900024414062500,22.0907993316650400,35.2831993103027340,228.9497985839843800,99.9322433471679700,22.0826396942138670,29.3870697021484380,109,118,89,83,62,14930,2148934226,2149355958,2150592704,2147901915,2148084306,2148245028,2149342317,2147313408,3154,2,15,61945
1359328110,5806,113.9300003051757800,22.1779003143310550,35.2806015014648440,229.5303955078125000,96.9989166259765600,22.1728706359863280,29.3217906951904300,118,119,88,84,62,14920,2149305078,2149839442,2151192256,2147913316,2148225545,2148462802,2149581723,2147335332,3088,2,16,63132
1359328223,5805,110.0500030517578100,22.3232002258300780,35.2799987792968750,231.5435943603515600,92.7224731445312500,22.3044605255126950,29.1709194183349600,118,121,90,84,61,14917,2149779072,2150432548,2151901504,2147929856,2148398235,2148703314,2149840804,2147364324,3385,2,16,25431
1359328377,5806,106.4899978637695300,22.3640995025634770,35.2509002685546900,232.2187957763672000,91.4321365356445300,22.3441696166992200,29.1224403381347660,120,123,87,82,61,14906,2150127277,2150786477,2152262116,2147935689,2148517586,2148814400,2149941494,2147376749,256,2,15,39576
1359328598,5808,101.9300003051757800,22.7499008178710940,35.2625007629394500,234.4329071044922000,78.5439834594726600,22.7412109375000000,28.8549003601074220,135,123,90,83,61,14887,2151449664,2152317595,2153935597,2147973065,2148996480,2149402578,2150538962,2147439113,419,2,15,46785
1359328687,5809,98.9400024414062500,22.8400993347167970,35.2633018493652340,234.9503021240234400,75.8955764770507800,22.8228797912597660,28.7971000671386720,132,132,89,82,61,14886,2152426386,2153411081,2155075373,2147999268,2149353755,2149836635,2150958564,2147484982,3386,2,16,57144
1359328742,5804,97.0999984741211000,22.8903999328613280,35.2636985778808600,235.1838073730468800,73.7675323486328100,22.8885192871093750,28.7594509124755860,135,123,91,83,61,14881,2153032466,2154050505,2155687936,2148019163,2149570176,2150068123,2151166107,2147510052,2834,2,16,9026
1359328832,5808,93.9800033569336000,23.0585002899169920,35.2555007934570300,234.7592010498047000,68.5190124511718800,23.0504894256591800,28.7128906250000000,132,123,89,85,60,14884,2153923958,2154879003,2156353024,2148044086,2149883620,2150363794,2151391716,2147538020,2838,2,16,25484
1359328887,5810,91.7500000000000000,23.2227001190185550,35.2524986267089840,234.3381958007812500,63.0960311889648440,23.2179603576660160,28.6641197204589840,134,126,89,83,61,14880,2154178925,2154999424,2156276690,2148050596,2149980726,2150391506,2151349659,2147537325,2796,2,16,20366
1359328942,5808,89.6399993896484400,23.4414997100830080,35.2571983337402340,233.7756958007812500,56.7321395874023440,23.4146595001220700,28.6103992462158200,134,123,92,84,61,14880,2154269257,2154946477,2156042038,2148052946,2150030070,2150370057,2151270610,2147532992,2360,2,16,32023
1359328997,5809,88.0299987792968800,23.5410003662109380,35.2599983215332000,233.4279937744140600,53.1972389221191400,23.5239906311035160,28.5821495056152340,128,122,91,84,61,14887,2154461540,2155023561,2155976173,2148056621,2150119378,2150415140,2151263149,2147540498,1795,2,16,4355
1359329063,5811,86.4400024414062500,23.7248992919921880,35.2625007629394500,233.1148986816406200,49.8515396118164060,23.6275196075439450,28.5547294616699220,120,122,90,84,62,14889,2154725284,2155194569,2155987803,2148063844,2150251410,2150514148,2151301229,2147544182,1369,2,15,65511
1359329164,5807,84.0899963378906200,23.9283008575439450,35.2723007202148440,232.8305053710937500,39.2514381408691400,23.9558906555175780,28.4351406097412100,114,122,89,85,60,14887,2156712091,2157095661,2157615277,2148117540,2151151067,2151430226,2152041417,2147631360,3522,1,15,41110
1359329241,5807,82.5500030517578100,24.5932006835937500,35.3041992187500000,232.6990051269531200,20.2751598358154300,24.5451297760009770,28.2048492431640620,90,124,90,84,58,14907,2157548973,2157907584,2158308086,2148154166,2151749257,2152007963,2152467995,2147675785,2552,1,16,43835
1359329506,5809,79.5800018310546900,24.7528991699218750,35.3177986145019500,234.6248016357422000,13.7197904586792000,24.7491207122802730,28.0347404479980470,73,119,90,83,57,14903,2158939849,2159336393,2159671158,2148226651,2153344576,2153517824,2153521526,2147776731,1356,1,16,46370
1359329561,5807,76.8099975585937500,24.7826995849609380,35.3208007812500000,234.8067016601562500,12.8803997039794920,24.7752609252929700,28.0160408020019530,73,118,88,83,57,14917,2160097837,2160538258,2160815469,2148310966,2154503844,2154616411,2154314075,2147860891,856,1,16,43224
1359329616,5802,73.9400024414062500,24.7908000946044920,35.3218002319335940,235.1114959716797000,12.5347003936767580,24.7860202789306640,27.9978599548339840,72,117,89,83,57,14921,2161352338,2161845997,2162067410,2148409572,2155861092,2155886811,2155208356,2147953261,686,1,16,61680
1359329671,5809,71.1399993896484400,24.7992992401123050,35.3224983215332000,235.2619934082031200,12.2453699111938480,24.7950305938720700,27.9874496459960940,71,118,92,83,58,14917,2162967872,2163543360,2163701659,2148532973,2157558985,2157473170,2156340562,2148074505,653,1,16,34392
1359329726,5805,68.4700012207031200,24.8097991943359380,35.3231010437011700,235.3708038330078000,11.8886604309082030,24.8061408996582030,27.9779796600341800,72,117,91,84,57,14919,2164922742,2165591158,2165685366,2148712347,2159563830,2159358774,2157678409,2148215808,646,1,16,60797
1359329783,5807,65.8300018310546900,24.8192005157470700,35.3246002197265600,235.5841064453125000,11.5775899887084960,24.8158302307128900,27.9643993377685550,69,118,94,86,56,14917,2167090450,2167871990,2167910052,2148931346,2161841225,2161499803,2159199442,2148383670,287,1,16,15327
1359329838,5809,63.3300018310546900,24.8204994201660160,35.3238983154296900,235.6853942871093800,11.5159196853637700,24.8177509307861330,27.9589004516601560,68,118,91,84,57,14922,2169172214,2170047616,2170020818,2149166875,2164151616,2163636251,2160701741,2148553627,8,2,16,39624
1359329893,5804,60.8100013732910160,24.8208999633789060,35.3241004943847660,235.8208007812500000,11.4877004623413090,24.8186302185058600,27.9526290893554700,68,117,91,82,56,14914,2171216237,2172178861,2172073197,2149439168,2166510436,2165826130,2162194944,2148724032,3508,1,16,52296
1359329948,5809,58.3699989318847660,24.8211994171142580,35.3235015869140600,235.8484954833984400,11.4860200881958000,24.8186893463134770,27.9513206481933600,67,116,92,83,56,14916,2173322816,2174370230,2174186276,2149765376,2168915629,2168034194,2163711652,2148910262,3439,1,16,33534
1359330003,5808,56.0099983215332000,24.8194007873535160,35.3241996765136700,236.0084075927734400,11.5011701583862300,24.8182106018066400,27.9440994262695300,68,116,91,82,57,14910,2175252242,2176385408,2176097865,2150081572,2171325942,2170249472,2165186898,2149094701,3283,2,16,42897
1359330058,5808,53.7200012207031250,24.8190002441406250,35.3238983154296900,236.0442962646484400,11.5189695358276370,24.8176593780517580,27.9428691864013670,67,117,92,84,57,14914,2177426550,2178651190,2178252891,2150466084,2174024704,2172731200,2166855149,2149300726,3240,1,16,42704
1359330115,5808,51.4900016784668000,24.8188991546630860,35.3235015869140600,236.1564941406250000,11.5226097106933600,24.8175392150878900,27.9378604888916000,66,116,90,85,58,14912,2179992292,2181317037,2180787492,2150942592,2177101924,2175566061,2168757586,2149544932,3351,1,16,12808
1359330170,5807,49.4700012207031250,24.8197002410888670,35.3233985900878900,236.1755981445312500,11.4939899444580080,24.8184394836425780,27.9364604949951170,65,115,87,84,57,14912,2183035062,2184509421,2183841325,2151484937,2180631323,2178869302,2170980352,2149831488,3251,1,16,45105
1359330225,5807,47.5499992370605500,24.8220996856689450,35.3240013122558600,236.2523040771484400,11.3285703659057620,24.8235893249511720,27.9309997558593750,64,116,90,83,58,14903,2186264704,2187869851,2187085604,2152230061,2184424512,2182407707,2173379812,2150171794,3101,1,16,40914
1359330280,5810,45.6899986267089840,24.8521995544433600,35.3217010498046900,236.0099945068359400,10.3163700103759770,24.8551197052001950,27.9295005798339840,62,115,93,84,55,14910,2189465078,2191202404,2190264649,2152934948,2188314806,2186050322,2175810477,2150511506,2846,2,16,26256
1359330335,5807,43.8899993896484400,24.8941001892089840,35.3162994384765600,235.9221954345703000,9.0886020660400390,24.8933792114257800,27.9183006286621100,62,115,91,83,55,14911,2192540635,2194296923,2193357668,2153877019,2192010340,2189438372,2178045412,2150880603,2315,1,16,11270
1359330390,5809,42.2099990844726560,24.9213008880615230,35.3115005493164060,235.6875000000000000,8.2786111831665040,24.9186191558837900,27.9189605712890620,61,115,91,85,56,14909,2193517019,2195237860,2194270912,2154342555,2194234861,2191463515,2179245275,2151062692,1365,1,16,16308
1359330468,5804,39.2999992370605500,24.9437007904052730,35.3059005737304700,235.6804962158203000,7.4813070297241210,24.9434700012207030,27.9094505310058600,58,116,90,82,56,14904,2194384768,2195904539,2194993216,2155445833,2196956745,2193766948,2180445659,2151371062,793,1,16,268
1359330523,5809,36.4300003051757800,24.9556007385253900,35.3033981323242200,235.5081939697265600,7.0947017669677730,24.9555206298828120,27.9125595092773440,58,115,88,84,56,14913,2194631424,2195932534,2195096283,2156358756,2198466249,2194931090,2180955757,2151617462,740,1,16,47807
1359330578,5809,33.4900016784668000,24.9601001739501950,35.3014984130859400,235.5670013427734400,6.9970431327819820,24.9585704803466800,27.9085903167724600,57,115,90,83,58,14909,2195005577,2196074176,2195369133,2157735360,2199825325,2195916050,2181388955,2151929920,376,1,16,31626
1359330633,5808,30.2500000000000000,24.9615001678466800,35.3008995056152340,235.5341033935547000,6.9427552223205570,24.9602603912353500,27.9095497131347660,56,114,91,83,57,14914,2195838765,2196740553,2196179355,2159182217,2201860608,2197616064,2182339355,2152336905,68,2,15,55342
1359330688,5808,26.7500000000000000,24.9631004333496100,35.3003005981445300,235.6412048339843800,6.8750920295715330,24.9623699188232420,27.9037399291992200,56,114,91,83,55,14907,2197584402,2198331044,2198017572,2161703213,2205170304,2200410139,2184121161,2153007625,3401,1,15,1952
1359330743,5806,23.2299995422363280,24.9629993438720700,35.3003997802734400,235.5964965820312500,6.8126411437988280,24.9643192291259770,27.9049797058105470,56,114,89,83,57,14911,2201183771,2201872009,2201963264,2165988278,2210120886,2204749120,2187033600,2154139574,3478,1,15,6399
